Powrót do katalogu

GORIZONT 20

AktywnyŁącznośćGEO
NORAD 20659·PAYLOAD·🇷🇺 Russia

Wystrzelony Jun 20, 1990 z Baikonur Cosmodrome

Loading…

TLE

ŚwieżeSource: Space-Track

Epoka: Sep 13, 2026, 16:00 UTC

1 20659U 90054A   26256.66667422 -.00000270  00000-0  00000-0 0  9990
2 20659  12.5969 335.4439 0006522 248.6396  99.8865  1.00305670132575

Śledź GORIZONT 20 w czasie rzeczywistym z AllMySat

Download on the App Store